Time,TemperatureF,DewpointF,PressureIn,WindDirection,WindDirectionDegrees,WindSpeedMPH,WindSpeedGustMPH,Humidity,HourlyPrecipIn,Conditions,Clouds,dailyrainin,SoftwareType,DateUTC
2013-06-20 00:02:00,68.0,55.0,30.06,ESE,120,0.0,1.0,63,0.00,,,0.00,,2013-06-20 05:02:00,
2013-06-20 00:12:00,68.0,55.0,30.06,ESE,120,0.0,1.0,63,0.00,,,0.00,,2013-06-20 05:12:00,
2013-06-20 00:22:00,67.0,54.0,30.06,ENE,68,0.0,2.0,62,0.00,,,0.00,,2013-06-20 05:22:00,
2013-06-20 00:33:00,67.0,54.0,30.06,ENE,67,0.0,1.0,63,0.00,,,0.00,,2013-06-20 05:33:00,
2013-06-20 00:44:00,67.0,54.0,30.06,ENE,67,0.0,1.0,63,0.00,,,0.00,,2013-06-20 05:44:00,
2013-06-20 00:53:00,67.0,54.0,30.06,ENE,60,0.0,1.0,63,0.00,,,0.00,,2013-06-20 05:53:00,
2013-06-20 01:02:00,66.0,53.0,30.06,NE,55,0.0,2.0,63,0.00,,,0.00,,2013-06-20 06:02:00,
2013-06-20 01:11:00,66.0,53.0,30.06,NE,55,0.0,2.0,63,0.00,,,0.00,,2013-06-20 06:11:00,
2013-06-20 01:22:00,66.0,53.0,30.06,NE,54,0.0,1.0,64,0.00,,,0.00,,2013-06-20 06:22:00,
2013-06-20 01:33:00,66.0,54.0,30.06,NE,54,0.0,0.0,65,0.00,,,0.00,,2013-06-20 06:33:00,
2013-06-20 01:43:00,66.0,54.0,30.06,NE,54,0.0,0.0,65,0.00,,,0.00,,2013-06-20 06:43:00,
2013-06-20 01:53:00,66.0,54.0,30.06,NE,55,0.0,0.0,65,0.00,,,0.00,,2013-06-20 06:53:00,
2013-06-20 02:01:00,66.0,54.0,30.07,ENE,59,0.0,1.0,66,0.00,,,0.00,,2013-06-20 07:01:00,
2013-06-20 02:12:00,66.0,54.0,30.07,ENE,59,0.0,1.0,66,0.00,,,0.00,,2013-06-20 07:12:00,
2013-06-20 02:22:00,66.0,54.0,30.07,ENE,59,0.0,1.0,66,0.00,,,0.00,,2013-06-20 07:22:00,
2013-06-20 02:34:00,66.0,55.0,30.07,ENE,59,0.0,0.0,67,0.00,,,0.00,,2013-06-20 07:34:00,
2013-06-20 02:44:00,66.0,55.0,30.07,ENE,59,0.0,0.0,67,0.00,,,0.00,,2013-06-20 07:44:00,
2013-06-20 02:53:00,66.0,55.0,30.06,ENE,59,0.0,0.0,68,0.00,,,0.00,,2013-06-20 07:53:00,
2013-06-20 03:02:00,65.0,55.0,30.06,ENE,59,0.0,0.0,69,0.00,,,0.00,,2013-06-20 08:02:00,
2013-06-20 03:11:00,65.0,55.0,30.06,ENE,59,0.0,0.0,69,0.00,,,0.00,,2013-06-20 08:11:00,
2013-06-20 03:22:00,65.0,55.0,30.06,ENE,59,0.0,0.0,70,0.00,,,0.00,,2013-06-20 08:22:00,
2013-06-20 03:34:00,65.0,55.0,30.06,ENE,59,0.0,0.0,71,0.00,,,0.00,,2013-06-20 08:34:00,
2013-06-20 03:43:00,65.0,55.0,30.06,ENE,59,0.0,0.0,71,0.00,,,0.00,,2013-06-20 08:43:00,
2013-06-20 03:53:00,65.0,55.0,30.06,ENE,59,0.0,0.0,71,0.00,,,0.00,,2013-06-20 08:53:00,
2013-06-20 04:02:00,65.0,56.0,30.06,ENE,59,0.0,0.0,72,0.00,,,0.00,,2013-06-20 09:02:00,
2013-06-20 04:12:00,65.0,56.0,30.06,ENE,59,0.0,0.0,72,0.00,,,0.00,,2013-06-20 09:12:00,
2013-06-20 04:22:00,65.0,56.0,30.06,ENE,59,0.0,0.0,73,0.00,,,0.00,,2013-06-20 09:22:00,
2013-06-20 04:33:00,64.0,56.0,30.06,ENE,59,0.0,0.0,74,0.00,,,0.00,,2013-06-20 09:33:00,
2013-06-20 04:42:00,64.0,56.0,30.06,ENE,59,0.0,0.0,74,0.00,,,0.00,,2013-06-20 09:42:00,
2013-06-20 04:52:00,64.0,56.0,30.06,ENE,59,0.0,1.0,75,0.00,,,0.00,,2013-06-20 09:52:00,
2013-06-20 05:01:00,64.0,56.0,30.06,ENE,59,0.0,0.0,75,0.00,,,0.00,,2013-06-20 10:01:00,
2013-06-20 05:11:00,64.0,56.0,30.06,ENE,59,0.0,0.0,75,0.00,,,0.00,,2013-06-20 10:11:00,
2013-06-20 05:22:00,64.0,56.0,30.06,ENE,59,0.0,0.0,76,0.00,,,0.00,,2013-06-20 10:22:00,
2013-06-20 05:34:00,64.0,57.0,30.06,ENE,59,0.0,0.0,77,0.00,,,0.00,,2013-06-20 10:34:00,
2013-06-20 05:43:00,64.0,57.0,30.06,ENE,59,0.0,0.0,77,0.00,,,0.00,,2013-06-20 10:43:00,
2013-06-20 05:53:00,63.0,56.0,30.07,ENE,59,0.0,0.0,78,0.00,,,0.00,,2013-06-20 10:53:00,
2013-06-20 06:02:00,63.0,56.0,30.07,ENE,59,0.0,1.0,78,0.00,,,0.00,,2013-06-20 11:02:00,
2013-06-20 06:12:00,63.0,56.0,30.07,ENE,59,0.0,1.0,78,0.00,,,0.00,,2013-06-20 11:12:00,
2013-06-20 06:22:00,63.0,56.0,30.07,ENE,57,0.0,0.0,79,0.00,,,0.00,,2013-06-20 11:22:00,
2013-06-20 06:34:00,63.0,56.0,30.08,NE,56,0.0,0.0,79,0.00,,,0.00,,2013-06-20 11:34:00,
2013-06-20 06:42:00,63.0,56.0,30.08,NE,56,0.0,0.0,79,0.00,,,0.00,,2013-06-20 11:42:00,
2013-06-20 06:53:00,64.0,57.0,30.08,ENE,66,0.0,1.0,79,0.00,,,0.00,,2013-06-20 11:53:00,
2013-06-20 07:02:00,64.0,57.0,30.08,ENE,66,0.0,0.0,79,0.00,,,0.00,,2013-06-20 12:02:00,
2013-06-20 07:11:00,64.0,57.0,30.08,ENE,66,0.0,0.0,79,0.00,,,0.00,,2013-06-20 12:11:00,
2013-06-20 07:22:00,65.0,58.0,30.09,ENE,66,0.0,1.0,79,0.00,,,0.00,,2013-06-20 12:22:00,
2013-06-20 07:34:00,67.0,60.0,30.09,East,90,0.0,2.0,77,0.00,,,0.00,,2013-06-20 12:34:00,
2013-06-20 07:43:00,67.0,60.0,30.09,East,90,0.0,2.0,77,0.00,,,0.00,,2013-06-20 12:43:00,
2013-06-20 07:53:00,69.0,61.0,30.09,East,90,0.0,1.0,75,0.00,,,0.00,,2013-06-20 12:53:00,
2013-06-20 08:02:00,70.0,61.0,30.09,SSE,150,0.0,3.0,72,0.00,,,0.00,,2013-06-20 13:02:00,
2013-06-20 08:11:00,70.0,61.0,30.09,SSE,150,0.0,3.0,72,0.00,,,0.00,,2013-06-20 13:11:00,
2013-06-20 08:22:00,71.0,61.0,30.09,ESE,118,1.0,4.0,71,0.00,,,0.00,,2013-06-20 13:22:00,
2013-06-20 08:33:00,72.0,62.0,30.09,South,181,0.0,4.0,71,0.00,,,0.00,,2013-06-20 13:33:00,
2013-06-20 08:42:00,72.0,62.0,30.09,South,181,0.0,4.0,71,0.00,,,0.00,,2013-06-20 13:42:00,
2013-06-20 08:53:00,74.0,64.0,30.09,ESE,117,1.0,3.0,70,0.00,,,0.00,,2013-06-20 13:53:00,
2013-06-20 09:02:00,75.0,65.0,30.09,SSE,158,0.0,3.0,70,0.00,,,0.00,,2013-06-20 14:02:00,
2013-06-20 09:11:00,75.0,65.0,30.09,SSE,158,0.0,3.0,70,0.00,,,0.00,,2013-06-20 14:11:00,
2013-06-20 09:22:00,76.0,65.0,30.09,SSE,163,0.0,4.0,68,0.00,,,0.00,,2013-06-20 14:22:00,
2013-06-20 09:32:00,77.0,65.0,30.09,SSW,192,1.0,3.0,67,0.00,,,0.00,,2013-06-20 14:32:00,
2013-06-20 09:42:00,77.0,65.0,30.09,SSW,192,1.0,3.0,67,0.00,,,0.00,,2013-06-20 14:42:00,
2013-06-20 09:53:00,79.0,66.0,30.09,SSE,167,1.0,5.0,65,0.00,,,0.00,,2013-06-20 14:53:00,
2013-06-20 10:02:00,80.0,66.0,30.09,NW,309,1.0,5.0,63,0.00,,,0.00,,2013-06-20 15:02:00,
2013-06-20 10:11:00,80.0,66.0,30.09,NW,309,1.0,5.0,63,0.00,,,0.00,,2013-06-20 15:11:00,
2013-06-20 10:22:00,81.0,66.0,30.09,SSE,152,1.0,5.0,61,0.00,,,0.00,,2013-06-20 15:22:00,
2013-06-20 10:33:00,83.0,67.0,30.08,ENE,68,1.0,4.0,58,0.00,,,0.00,,2013-06-20 15:33:00,
2013-06-20 10:43:00,83.0,67.0,30.08,ENE,68,1.0,4.0,58,0.00,,,0.00,,2013-06-20 15:43:00,
2013-06-20 10:53:00,84.0,66.0,30.07,South,174,1.0,5.0,55,0.00,,,0.00,,2013-06-20 15:53:00,
2013-06-20 11:01:00,84.0,63.0,30.08,South,188,2.0,5.0,50,0.00,,,0.00,,2013-06-20 16:01:00,
2013-06-20 11:11:00,84.0,63.0,30.08,South,188,2.0,5.0,50,0.00,,,0.00,,2013-06-20 16:11:00,
2013-06-20 11:22:00,85.0,62.0,30.08,SSW,198,0.0,6.0,47,0.00,,,0.00,,2013-06-20 16:22:00,
2013-06-20 11:33:00,85.0,62.0,30.08,South,180,2.0,6.0,47,0.00,,,0.00,,2013-06-20 16:33:00,
2013-06-20 11:42:00,85.0,62.0,30.08,South,180,2.0,6.0,47,0.00,,,0.00,,2013-06-20 16:42:00,
2013-06-20 11:52:00,86.0,61.0,30.07,South,189,0.0,6.0,43,0.00,,,0.00,,2013-06-20 16:52:00,
2013-06-20 12:02:00,87.0,62.0,30.07,SW,222,3.0,7.0,43,0.00,,,0.00,,2013-06-20 17:02:00,
2013-06-20 12:12:00,87.0,62.0,30.07,SW,222,3.0,7.0,43,0.00,,,0.00,,2013-06-20 17:12:00,
2013-06-20 12:22:00,88.0,61.0,30.07,SSE,155,3.0,7.0,41,0.00,,,0.00,,2013-06-20 17:22:00,
2013-06-20 12:32:00,88.0,61.0,30.07,NNW,327,1.0,7.0,41,0.00,,,0.00,,2013-06-20 17:32:00,
2013-06-20 12:43:00,88.0,61.0,30.07,NNW,327,1.0,7.0,41,0.00,,,0.00,,2013-06-20 17:43:00,
2013-06-20 12:53:00,89.0,63.0,30.07,SSE,164,1.0,4.0,42,0.00,,,0.00,,2013-06-20 17:53:00,
2013-06-20 13:01:00,89.0,61.0,30.06,SE,134,1.0,6.0,40,0.00,,,0.00,,2013-06-20 18:01:00,
2013-06-20 13:11:00,89.0,61.0,30.06,SE,134,1.0,6.0,40,0.00,,,0.00,,2013-06-20 18:11:00,
2013-06-20 13:22:00,90.0,61.0,30.06,South,180,1.0,4.0,38,0.00,,,0.00,,2013-06-20 18:22:00,
2013-06-20 13:33:00,90.0,63.0,30.05,South,173,1.0,7.0,41,0.00,,,0.00,,2013-06-20 18:33:00,
2013-06-20 13:43:00,90.0,63.0,30.05,South,173,1.0,7.0,41,0.00,,,0.00,,2013-06-20 18:43:00,
2013-06-20 13:53:00,90.0,60.0,30.05,WNW,299,2.0,6.0,37,0.00,,,0.00,,2013-06-20 18:53:00,
2013-06-20 14:01:00,91.0,59.0,30.05,SW,234,2.0,8.0,35,0.00,,,0.00,,2013-06-20 19:01:00,
2013-06-20 14:11:00,91.0,59.0,30.05,SW,234,2.0,8.0,35,0.00,,,0.00,,2013-06-20 19:11:00,
2013-06-20 14:22:00,91.0,60.0,30.04,South,169,2.0,6.0,36,0.00,,,0.00,,2013-06-20 19:22:00,
2013-06-20 14:34:00,91.0,62.0,30.04,SSW,209,1.0,4.0,38,0.00,,,0.00,,2013-06-20 19:34:00,
2013-06-20 14:43:00,91.0,62.0,30.04,SSW,209,1.0,4.0,38,0.00,,,0.00,,2013-06-20 19:43:00,
2013-06-20 14:52:00,92.0,60.0,30.04,South,176,1.0,4.0,35,0.00,,,0.00,,2013-06-20 19:52:00,
2013-06-20 15:02:00,92.0,60.0,30.04,SSE,148,2.0,5.0,35,0.00,,,0.00,,2013-06-20 20:02:00,
2013-06-20 15:11:00,92.0,60.0,30.04,SSE,148,2.0,5.0,35,0.00,,,0.00,,2013-06-20 20:11:00,
2013-06-20 15:22:00,92.0,60.0,30.04,WSW,239,1.0,6.0,34,0.00,,,0.00,,2013-06-20 20:22:00,
2013-06-20 15:33:00,91.0,59.0,30.03,East,94,1.0,5.0,34,0.00,,,0.00,,2013-06-20 20:33:00,
2013-06-20 15:42:00,91.0,59.0,30.03,East,94,1.0,5.0,34,0.00,,,0.00,,2013-06-20 20:42:00,
2013-06-20 15:52:00,92.0,60.0,30.03,South,184,2.0,7.0,35,0.00,,,0.00,,2013-06-20 20:52:00,
2013-06-20 16:01:00,92.0,58.0,30.02,East,84,1.0,5.0,32,0.00,,,0.00,,2013-06-20 21:01:00,